DELTA 1 DEB

Satellite information

Favourite Embed

Satellite Type and Status

DEBRISIN ORBIT

Key statistics

Satellite DELTA 1 DEB at a glance.

Uptime

17402

Days in orbit

Revolutions

≈ 14.0

Per day

Orbit

SSO

Sun Synchronous Orbit

Inclination

99.2

Latest

Satellite identification and parameters

Extended collection of information and parameters for DELTA 1 DEB.

Object identification

Identified? True

Debris? True

Object name: DELTA 1 DEB

International designator: 1978-026JQ

Object number (NORAD): 37653

Object ID (CCSDS): 37653

Country: UNITED STATES OF AMERICA (US)

Current information (Y/N): Y

RCS size: SMALL

Orbital parameters

Period: 102.528 minutes

Inclination: 99.2158 deg

SMA: 7256.422 km

Apoapsis: 906.282 km

Periapsis: 850.292 km

RAAN: 304.7225 deg

Eccentricy: 0.00385794

Argument of periapsis: 37.2087 deg

Mean anomaly: 143.6211 deg

Mean motion: 14.04490952 rev/day

Mean motion (dot): 0.00000128 rev/day2

B* drag term: 0.00010847219 1/REarth

Two-line elements (TLE)

Creation date: Oct. 12, 2025, 3:37 a.m.

Reference frame: TEME

Reference center: EARTH

Epoch: Oct. 11, 2025, 7:47 p.m. UTC

TLE line 0: 0 DELTA 1 DEB

TLE line 1: 1 37653U 78026JQ 25284.82471843 .00000128 00000-0 10847-3 0 9999

TLE line 2: 2 37653 99.2158 304.7225 0038579 37.2087 143.6211 14.04490952626440

Live tracking on map

Real-time ground track for satellite DELTA 1 DEB.

In-orbit conjunctions

A list of the most updated potential collisions computed for object DELTA 1 DEB.

Target Orbit TCA Probability of collision Miss distance Type
CZ-6A DEB LEO 2025-02-04 23:56:09 0.0002487685 102.0 (m) DEBRIS
FENGYUN 1C DEB SSO 2024-11-14 01:45:34 0.001817606 85.0 (m) DEBRIS

Associated space launch

Earth observation satellite

DELTA 1 DEB was lifted into orbit during the mission ‘Delta 2910 | Landsat 3’, on board a Delta 2910 space rocket.

The launch took place on March 5, 1978, 5:54 p.m. from Space Launch Complex 2W.

For more information about the launch, click the button.

Launch to space Delta 2910 | Landsat 3
Delta 2910 | Landsat 3

Agency: N/A

Status: Launch Successful

Launch date: March 5, 1978, 5:54 p.m. UTC

Rocket: Delta 2910

Launch pad: Space Launch Complex 2W

Location: Vandenberg SFB, CA, USA

...

Latest news about this satellite

There are no fresh news available about this satellite. Check back as we update our databases every day.


Newsletter sign-up

Weekly statistics, charts and insights to help you stay on top of the space industry.